Location: Little Arabia
(41.4620°N, 81.7687°W)
Time: 20:55:38
(UTC+00:00)

Cosmos 1825 - Pass Details

Date: 29 October 2020
Orbit: 501 x 508 km, 82.5° (Epoch: 03 December)

Event Time Altitude Azimuth Distance (km) Brightness Sun altitude
Rises 23:30:24 0° 4° (N) 2,622 5.7 -12.8°
Reaches altitude 10° 23:32:48 10° 18° (NNE) 1,730 4.6 -13.2°
Maximum altitude 23:36:00 25° 75° (ENE) 1,043 3.1 -13.8°
Enters shadow 23:36:41 24° 93° (E) 1,081 3.2 -13.9°
